Location: *
(45.9500°N, 9.0833°E)
Time: 14:42:56
(UTC+00:00)

Meteor 1-23 Rocket - Pass Details

Date: 03 March 2021
Orbit: 837 x 888 km, 81.3° (Epoch: 14 April)

Event Time Altitude Azimuth Distance (km) Brightness Sun altitude
Rises 19:21:57 0° 351° (N) 3,406 7.7 -23.0°
Reaches altitude 10° 19:24:24 10° 355° (N) 2,470 6.9 -23.4°
Maximum altitude 19:29:57 64° 77° (ENE) 941 4.1 -24.3°
Enters shadow 19:30:19 62° 98° (E) 953 4.1 -24.4°
